Regional Weather Roundup
Issued by NWS

Home | Current Version | Previous Version | Graphics & Text | Print | Product List | Glossary Off
Versions: 1 2 3 4 5 6 7 8 9 10 11 12 13 14 15 16 17 18 19 20 21 22 23 24 25 26 27 28 29 30 31 32 33 34 35 36 37 38 39 40 41 42 43 44 45 46 47 48 49 50

904
ASUS43 KTOP 291608
RWRKS

WEATHER ROUNDUP FOR KANSAS
NATIONAL WEATHER SERVICE GOODLAND KS
1100 AM CDT MON AUG 29 2016

NOTE:  "FAIR" INDICATES FEW OR NO CLOUDS BELOW 12,000 FEET WITH NO
SIGNIFICANT WEATHER AND/OR OBSTRUCTIONS TO VISIBILITY.

KSZ001>006-013>018-027>032-041>047-291700-
NORTHWEST KANSAS

CITY           SKY/WX    TMP DP  RH WIND       PRES   REMARKS
GOODLAND       CLOUDY    67  61  81 S12       30.26S
HAYS           CLOUDY    73  63  68 CALM      30.22R
HILL CITY      LGT RAIN  69  68  96 SW6       30.24R FOG
RUSSELL        CLOUDY    76  66  71 CALM      30.20R
$$

KSZ061>065-074>080-084>089-291700-
SOUTHWEST KANSAS

CITY           SKY/WX    TMP DP  RH WIND       PRES   REMARKS
DODGE CITY     LGT RAIN  70  67  90 S3        30.23R
GARDEN CITY    LGT RAIN  68  66  93 SE5       30.24R
GREAT BEND     MOSUNNY   79  64  61 CALM      30.20R
LIBERAL        CLOUDY    68  63  83 SE6       30.26R
PRATT          SUNNY     75  65  71 S3        30.21R
$$

KSZ066>073-081>083-090>101-291700-
SOUTHEAST KANSAS

CITY           SKY/WX    TMP DP  RH WIND       PRES   REMARKS
CHANUTE        SUNNY     85  72  65 SE3       30.19R
COFFEYVILLE    LGT RAIN  73  71  93 S5        30.20R
HUTCHINSON     SUNNY     81  72  74 S6        30.19R
MEDICINE LODGE   N/A     74  69  85 SE6       30.19R
NEWTON         SUNNY     83  71  67 S9        30.20R
PARSONS        MOSUNNY   83  72  69 S3        30.20R
WICHITA INTL   PTSUNNY   82  69  64 SE9       30.18R
WICHITA JABRA  CLOUDY    81  69  67 S7        30.19R
WICHITA MCCONL MOSUNNY   81  69  67 S8        30.19R
WINFIELD       LGT RAIN  79  72  79 SE7       30.19R
$$

KSZ007>012-019>026-033>040-048>060-102>105-291700-
NORTHEAST KANSAS

CITY           SKY/WX    TMP DP  RH WIND       PRES   REMARKS
CONCORDIA      MOSUNNY   80  71  74 E6        30.20R
EMPORIA        PTSUNNY   82  72  71 E6        30.19R
LAWRENCE       SUNNY     84  73  69 S3        30.19S
MARYSVILLE     MOSUNNY   81  72  74 SE3       30.20S
OLATHE IND     PTSUNNY   83  71  67 CALM      30.21R
OLATHE EXE     SUNNY     83  71  67 SE6       30.21R
SALINA         SUNNY     83  72  69 N6        30.19R
TOPEKA BILLARD PTSUNNY   84  70  62 SW6       30.19R
TOPEKA FORBES  PTSUNNY   86  71  60 S6        30.20R
$$




USA.gov is the U.S. government's official web portal to all federal, state and local government web resources and services.